This is the latest recevied weather packets stored in our database for station/object WB3EGK. If no packets are shown the sender has not sent any weather packets the latest 1 day(s).
| Time | Temp. | Humidity | Pressure | Rain* | Wind** | Luminosity | Snow |
|---|---|---|---|---|---|---|---|
| 1778107035 | 8.33° C | 1% | 1010.6 hPa | 0 mm | - | 35 W/m² | - |
| 1778105216 | 8.33° C | 1% | 1009.9 hPa | 0 mm | - | 52 W/m² | - |
| 1778104608 | 8.89° C | 1% | 1009.9 hPa | 0 mm | - | 58 W/m² | - |
| 1778101271 | 9.44° C | 1% | 1009.1 hPa | 0 mm | - | 96 W/m² | - |
| 1778100058 | 10° C | 1% | 1009.1 hPa | 0 mm | - | 182 W/m² | - |
| 1778097027 | 10.56° C | 1% | 1008.9 hPa | 0 mm | - | 314 W/m² | - |
| 1778096118 | 10.56° C | 1% | 1008.7 hPa | 0 mm | - | 343 W/m² | - |
| 1778095815 | 10.56° C | 1% | 1008.7 hPa | 0 mm | - | 311 W/m² | - |
| 1778094298 | 11.67° C | 1% | 1008.6 hPa | 0 mm | - | 498 W/m² | - |
| 1778093692 | 11.11° C | 1% | 1008.6 hPa | 0 mm | - | 789 W/m² | - |
| 1778093086 | 11.67° C | 1% | 1008.7 hPa | 0 mm | - | 524 W/m² | - |
| 1778092783 | 11.11° C | 1% | 1008.7 hPa | 0 mm | - | 596 W/m² | - |
| 1778091570 | 11.11° C | 1% | 1008.5 hPa | 0 mm | - | 542 W/m² | - |
| 1778091268 | 11.11° C | 1% | 1008.5 hPa | 0 mm | - | 258 W/m² | - |
| 1778090358 | 11.11° C | 1% | 1008.6 hPa | 0 mm | - | 573 W/m² | - |
| 1778089449 | 10.56° C | 1% | 1008.4 hPa | 0 mm | - | 388 W/m² | - |
| 1778089146 | 10.56° C | 1% | 1008.5 hPa | 0 mm | - | 242 W/m² | - |
| 1778088540 | 10° C | 1% | 1008.1 hPa | 0 mm | - | 168 W/m² | - |
| 1778087631 | 10° C | 1% | 1008.2 hPa | 0 mm | - | 237 W/m² | - |
| 1778086718 | 10° C | 1% | 1008.2 hPa | 0 mm | - | 671 W/m² | - |
| 1778085500 | 9.44° C | 1% | 1008.1 hPa | 0 mm | - | 531 W/m² | - |
| 1778085200 | 9.44° C | 1% | 1007.9 hPa | 0 mm | - | 740 W/m² | - |
| 1778079530 | 7.78° C | 1% | 1007.3 hPa | 0 mm | - | 209 W/m² | - |
| 1778079226 | 7.78° C | 1% | 1007.2 hPa | 0 mm | - | 169 W/m² | - |
| 1778078924 | 7.78° C | 1% | 1007.1 hPa | 0 mm | - | 78 W/m² | - |
* Rain latest hour (hover to see other rain measurements)
** Current wind speed in m/s (hover to see current wind gust speed)